This is the latest recevied weather packets stored in our database for station/object KG5MMT-15. If no packets are shown the sender has not sent any weather packets the latest 10 day(s).
| Time | Temp. | Humidity | Pressure | Rain* | Wind** | Luminosity | Snow |
|---|---|---|---|---|---|---|---|
| 1777775543 | 7.22° C | 62% | 0 hPa | 0 mm | - | - | - |
| 1777775243 | 7.22° C | 62% | 0 hPa | 0 mm | - | - | - |
| 1777774943 | 7.78° C | 61% | 0 hPa | 0 mm | - | - | - |
| 1777774643 | 8.33° C | 58% | 0 hPa | 0 mm | - | - | - |
| 1777774343 | 8.33° C | 58% | 0 hPa | 0 mm | - | - | - |
| 1777774043 | 8.33° C | 58% | 0 hPa | 0 mm | - | - | - |
| 1777773743 | 8.89° C | 56% | 0 hPa | 0 mm | - | - | - |
| 1777773443 | 9.44° C | 55% | 0 hPa | 0 mm | - | - | - |
| 1777773143 | 9.44° C | 53% | 0 hPa | 0 mm | - | - | - |
| 1777772843 | 10° C | 51% | 0 hPa | 0 mm | - | - | - |
| 1777772543 | 10° C | 49% | 0 hPa | 0 mm | - | - | - |
| 1777772243 | 10.56° C | 49% | 0 hPa | 0 mm | - | - | - |
| 1777771943 | 11.11° C | 47% | 0 hPa | 0 mm | - | - | - |
| 1777771643 | 11.67° C | 46% | 0 hPa | 0 mm | - | - | - |
| 1777771343 | 11.67° C | 42% | 0 hPa | 0 mm | - | - | - |
| 1777771043 | 12.22° C | 45% | 0 hPa | 0 mm | - | - | - |
| 1777770743 | 12.78° C | 43% | 0 hPa | 0 mm | - | - | - |
| 1777770443 | 12.78° C | 39% | 0 hPa | 0 mm | - | - | - |
| 1777770143 | 12.78° C | 38% | 0 hPa | 0 mm | - | - | - |
| 1777769843 | 12.78° C | 37% | 0 hPa | 0 mm | - | - | - |
| 1777769543 | 12.78° C | 36% | 0 hPa | 0 mm | - | - | - |
| 1777769243 | 12.78° C | 36% | 0 hPa | 0 mm | - | - | - |
| 1777768943 | 13.33° C | 36% | 0 hPa | 0 mm | - | - | - |
| 1777768643 | 13.33° C | 36% | 0 hPa | 0 mm | - | - | - |
| 1777768343 | 13.33° C | 34% | 0 hPa | 0 mm | - | - | - |
* Rain latest hour (hover to see other rain measurements)
** Current wind speed in m/s (hover to see current wind gust speed)